Theta_e
311 311 311 311 311 312 312 312 312 313 312 312 311 311 311 311 311 311 311 311 311 312 312 313 313 313 306 296 294 304 313 310 309 308 308 305 301 302 302 306 308 305 305 306 307 308 306
311 311 311 311 311 313 312 312 312 312 312 311 311 311 312 312 312 313 312 312 312 312 312 313 313 313 303 290 303 305 304 305 305 304 303 307 302 304 302 306 305 307 307 307 308 307 306
313 312 311 311 311 311 311 311 312 312 310 311 312 313 313 313 313 313 313 313 313 313 312 313 312 308 300 296 304 303 304 304 305 303 299 303 306 302 303 303 309 307 302 305 306 307 304
312 312 312 311 311 311 311 311 311 310 311 313 313 313 313 313 314 313 313 313 313 313 312 313 313 304 293 304 304 303 304 301 303 304 303 304 306 302 300 303 302 302 302 296 304 306 306
312 312 312 311 310 310 310 310 309 311 313 312 313 314 314 313 313 313 313 313 313 313 312 313 306 301 293 306 300 304 302 298 301 301 302 305 305 298 299 293 292 298 292 296 299 306 305
313 312 311 310 310 309 309 309 309 311 312 311 312 313 313 313 312 312 312 312 311 310 309 306 305 296 299 295 300 303 303 302 298 299 299 299 295 291 291 290 283 290 291 296 296 301 303
312 312 310 309 309 308 308 308 310 312 311 311 311 311 311 311 311 311 307 300 295 293 299 292 293 293 295 300 303 300 305 301 299 296 289 293 287 283 286 290 293 295 296 294 298 302 301
311 311 310 309 308 307 308 308 310 311 310 311 311 311 311 310 310 310 303 295 296 299 290 297 297 296 299 300 293 297 304 295 294 287 291 288 283 288 291 291 292 291 291 294 297 301 300
311 311 310 308 308 307 307 308 310 311 310 310 310 310 309 310 310 307 299 300 307 302 288 291 295 295 298 299 294 294 299 297 291 288 288 284 286 291 290 289 289 290 289 294 294 298 300
310 311 309 308 308 307 307 308 309 310 310 311 310 310 310 310 303 300 298 306 303 303 284 284 291 296 299 300 292 300 301 298 292 287 288 287 290 289 288 289 291 287 296 297 296 294 289
310 309 308 307 307 307 307 308 309 310 310 311 310 310 310 309 299 301 301 302 301 300 268 284 290 301 299 293 295 296 302 297 287 289 287 283 286 287 286 288 293 289 298 297 297 295 293
309 308 308 307 307 307 306 308 309 309 310 311 310 310 309 301 299 301 303 301 301 282 269 278 289 289 290 292 294 295 295 299 295 289 289 287 294 291 288 292 294 297 297 295 296 294 286
309 308 307 306 307 307 307 307 309 309 309 310 310 310 307 303 294 300 299 297 280 275 281 279 282 287 287 287 287 291 290 289 286 281 280 287 287 291 296 292 295 294 293 283 282 283 283
308 308 306 306 306 306 307 307 308 309 308 309 308 308 302 303 301 298 296 281 272 270 274 285 286 286 286 290 289 290 289 287 289 286 285 281 279 287 293 294 291 291 293 284 279 280 283
307 307 306 306 307 306 307 307 308 308 308 308 305 294 296 300 301 297 288 269 271 277 283 285 284 283 285 290 290 290 289 287 287 290 284 284 281 289 293 296 297 293 289 294 285 282 284
306 305 306 306 306 306 306 307 308 308 308 307 292 292 293 300 299 294 278 277 276 287 288 287 280 283 282 285 287 288 287 292 291 294 296 288 281 285 289 295 295 295 296 287 286 280 277
305 305 305 307 305 306 306 306 307 307 307 306 291 284 294 299 294 283 272 272 280 289 290 285 283 283 283 285 287 287 287 291 293 293 295 292 288 283 288 285 287 290 288 289 290 286 280
305 305 305 306 305 305 305 307 306 306 304 297 287 274 294 296 279 284 270 279 289 289 291 289 288 286 284 286 285 287 286 289 295 295 290 292 287 282 283 286 289 289 290 291 287 283 283
305 304 305 306 305 305 305 307 306 306 301 291 283 281 293 292 270 272 282 283 286 286 286 287 286 289 289 286 283 287 288 293 295 293 290 292 286 279 282 285 286 285 288 292 291 288 283
305 305 306 305 305 305 305 307 306 306 303 290 279 274 279 283 280 277 279 275 280 287 288 288 288 290 288 285 288 285 287 291 294 292 294 294 287 284 280 284 287 284 286 288 288 285 285
305 304 305 305 305 304 305 306 306 306 302 288 281 272 272 271 274 279 281 282 281 277 285 289 286 287 286 282 283 284 286 288 292 293 291 290 283 284 286 287 287 288 286 286 286 289 286
306 304 305 305 304 304 304 305 306 305 302 286 277 276 283 269 281 280 282 276 280 282 283 284 285 287 285 284 284 282 286 287 286 290 289 290 283 284 279 286 286 284 288 289 289 290 289
305 304 305 305 304 304 306 306 306 305 298 284 284 284 282 277 279 277 273 280 281 283 285 288 287 286 283 284 287 288 290 290 291 289 287 287 285 281 275 282 283 279 283 288 290 292 291
306 305 305 305 304 304 305 305 305 304 300 288 286 285 278 270 276 276 281 283 282 283 282 283 285 284 286 288 288 288 289 290 288 289 291 286 284 281 273 278 275 282 285 287 289 285 288
306 305 305 305 304 303 305 305 305 303 303 291 289 287 280 276 277 279 280 281 282 282 281 283 284 286 288 287 277 269 272 275 278 283 288 290 286 273 271 270 281 282 283 283 284 282 284
306 305 305 305 304 303 304 304 305 303 303 292 289 290 285 278 275 284 280 282 275 275 274 276 284 287 287 282 269 263 264 266 269 275 285 289 288 278 270 269 270 281 284 286 286 278 284
306 305 305 305 304 303 303 304 304 304 303 292 289 293 285 279 279 283 278 278 283 278 274 279 281 283 284 270 269 265 268 275 266 273 273 274 279 277 276 269 276 285 285 285 277 280 282
305 305 305 305 304 303 303 303 304 303 302 292 291 292 286 280 282 283 285 282 282 281 275 278 278 278 273 270 273 276 274 276 273 274 275 273 269 276 271 269 271 285 285 282 285 285 284
305 305 304 305 304 304 303 303 303 303 302 295 288 292 290 283 279 285 285 286 285 285 283 281 281 282 285 278 275 275 266 277 275 264 279 273 279 274 277 278 285 286 285 287 287 287 285
Wind_Speed
4 5 5 6 7 9 7 10 12 12 13 14 15 16 15 14 13 13 13 13 12 11 12 11 9 7 3 3 9 8 17 12 4 1 9 8 10 9 13 12 11 14 7 10 8 3 3
6 6 6 7 8 6 7 10 12 14 15 16 16 16 16 15 15 15 14 14 13 12 12 12 10 7 4 12 5 6 8 6 5 1 3 8 4 8 15 10 21 11 9 4 4 2 4
8 8 6 7 7 7 9 10 12 14 16 17 18 19 19 18 16 16 14 13 13 13 12 12 10 5 10 17 4 5 3 2 2 5 5 5 8 8 9 10 10 9 13 14 14 3 3
8 9 7 6 7 8 11 10 12 15 16 18 16 16 16 16 15 14 13 13 14 13 12 12 10 3 11 4 9 15 14 14 10 5 5 6 7 6 8 12 10 13 12 14 19 16 7
9 7 6 5 7 9 10 11 12 14 16 14 15 15 12 9 9 10 11 13 14 14 12 12 7 5 8 1 4 9 7 9 5 7 6 7 4 7 3 13 10 18 11 26 18 26 17
7 7 6 5 7 8 9 11 12 14 11 13 14 13 11 7 4 5 10 14 13 9 4 2 1 2 5 6 4 4 8 10 7 3 2 8 6 7 11 12 15 15 24 20 23 18 26
9 8 7 5 6 7 9 11 12 13 10 11 12 12 10 8 6 6 5 4 6 3 3 8 8 7 2 3 4 9 5 3 6 7 12 8 11 16 25 19 19 14 16 24 14 12 20
9 9 8 6 6 7 8 10 11 10 9 10 9 10 10 9 7 6 2 2 4 2 10 12 20 18 18 15 11 8 6 6 10 15 15 5 21 23 16 14 20 25 18 18 7 14 18
10 11 9 7 6 7 7 9 10 9 8 7 9 10 11 10 9 2 1 2 3 3 4 6 5 6 4 3 7 7 7 9 8 15 20 20 10 17 16 18 17 23 17 17 9 11 10
9 10 9 7 7 7 7 9 10 8 7 7 8 11 12 15 3 2 1 4 3 3 3 6 3 3 1 3 7 6 12 7 7 18 10 14 15 12 14 17 17 14 14 14 15 15 11
11 10 9 7 7 7 6 8 9 8 7 6 9 11 12 10 2 2 3 2 3 2 4 4 3 3 3 6 9 2 6 8 6 12 7 8 12 18 15 20 18 15 15 13 11 13 6
13 12 10 8 9 8 7 7 7 8 7 6 9 11 10 2 2 2 1 3 1 1 8 8 4 5 7 6 2 3 7 3 5 6 6 8 2 14 12 11 25 15 15 5 9 10 9
14 13 10 10 10 8 7 6 7 7 7 7 10 12 5 1 3 2 2 2 2 2 4 10 6 9 9 6 4 3 8 9 5 6 5 6 13 6 12 17 15 19 14 4 6 6 6
15 14 11 11 10 8 7 6 6 6 6 7 11 14 4 3 2 1 3 6 3 4 5 4 7 16 5 4 4 3 2 6 6 3 4 9 8 15 7 11 14 23 13 6 7 7 3
17 15 12 10 9 8 6 6 6 6 6 7 10 3 2 2 4 3 4 5 6 5 3 7 13 5 4 3 5 4 3 3 3 8 5 6 1 4 1 2 4 10 6 4 6 3 4
16 14 13 11 10 8 6 6 6 4 5 6 2 2 2 2 4 3 6 3 3 4 2 1 3 3 5 8 7 6 7 4 3 1 3 3 5 4 6 5 3 2 6 5 2 6 4
17 15 14 12 10 8 6 6 3 2 4 1 3 3 3 3 4 6 4 5 4 7 4 3 3 5 6 7 6 5 7 4 9 7 6 4 2 2 1 1 4 4 5 3 5 1 4
19 17 15 12 11 8 7 6 2 1 4 6 3 2 2 2 6 1 1 3 4 3 3 3 4 4 4 6 5 4 6 7 14 8 5 6 3 4 3 1 4 3 2 4 6 6 2
20 18 16 14 12 9 7 6 4 1 5 4 2 2 2 3 4 1 1 4 3 3 3 1 3 4 2 4 5 6 5 9 12 9 8 5 3 3 2 3 3 1 3 2 4 2 4
21 19 17 15 14 11 8 7 6 4 6 5 4 2 5 4 1 7 3 3 3 3 3 2 3 5 2 3 3 6 8 5 9 8 12 3 2 2 2 4 2 3 4 1 2 2 5
22 21 19 17 15 12 10 9 8 5 8 6 3 2 5 1 4 2 3 3 1 3 2 5 1 8 7 4 4 6 6 6 4 10 6 4 3 3 4 3 2 2 4 6 3 2 2
22 22 21 18 16 13 11 10 10 7 9 5 5 5 2 2 1 1 2 3 1 3 2 3 3 4 5 3 5 5 7 5 4 6 5 4 1 2 4 4 5 3 4 6 5 2 4
23 23 21 19 17 13 11 13 11 9 7 3 1 2 5 3 1 4 4 4 1 2 1 2 4 3 5 4 4 8 8 10 5 6 6 4 3 3 3 3 4 5 3 1 2 2 0
25 23 23 21 19 16 13 14 11 10 7 4 4 4 5 3 3 4 2 1 1 1 2 3 2 1 1 7 5 3 5 6 6 7 7 4 3 3 1 4 4 3 3 1 4 6 6
26 24 22 21 20 17 15 15 12 10 11 3 3 4 4 3 2 0 1 1 3 4 2 3 2 2 5 4 4 6 6 7 5 5 7 5 2 3 3 2 1 3 5 3 2 3 4
28 25 23 22 20 19 17 15 13 11 11 5 2 2 4 7 5 3 4 3 3 1 6 5 4 5 4 3 5 4 0 4 7 11 5 3 4 2 3 4 3 1 1 2 2 4 4
29 27 24 23 21 20 18 17 14 12 11 5 2 2 4 5 3 2 3 4 3 2 2 4 6 6 2 3 4 4 3 2 3 3 5 4 4 3 3 2 4 3 4 1 6 1 2
30 29 26 25 23 21 19 18 16 13 15 5 3 0 4 4 2 1 2 2 2 2 3 4 4 5 4 6 3 2 1 3 3 3 0 1 3 2 3 5 3 5 5 5 1 1 1
32 30 27 26 25 23 21 19 17 16 13 6 4 0 2 6 4 1 2 3 2 2 3 2 3 1 2 3 2 3 2 1 2 3 3 2 4 3 5 5 2 4 3 2 1 2 1
Wind_Direction
232 270 293 297 300 292 302 315 320 331 326 320 320 312 305 301 296 293 298 296 303 301 302 303 301 309 115 237 244 299 304 312 323 248 199 215 271 263 269 200 200 223 184 218 238 0 320
244 263 282 299 311 334 317 322 320 319 321 320 309 301 297 289 285 287 288 292 295 297 296 298 295 296 231 258 241 259 270 291 208 226 231 193 228 286 292 253 199 175 222 195 203 242 316
244 252 269 291 309 317 319 320 321 323 322 311 306 301 293 284 280 280 283 287 289 290 288 290 286 274 248 238 236 247 351 270 191 183 207 202 206 212 323 267 264 175 201 230 241 235 266
253 252 249 280 301 312 320 329 329 323 316 315 321 317 300 283 275 275 279 282 284 283 282 283 275 258 258 230 235 255 254 271 270 246 239 240 203 240 243 300 316 216 198 208 216 224 241
247 253 249 271 296 316 322 328 327 319 323 343 339 333 327 306 276 273 281 283 280 279 277 273 259 192 255 116 219 255 186 215 226 261 219 252 196 211 229 235 259 200 208 210 209 194 205
248 248 244 263 298 315 322 328 322 323 349 350 351 352 11 21 352 307 294 289 283 286 298 76 48 281 227 230 187 208 208 207 204 209 233 193 214 220 222 213 220 213 208 204 204 193 198
248 247 241 261 293 314 320 324 322 328 353 353 352 359 9 14 1 337 346 349 20 357 220 205 197 242 327 219 217 211 125 155 167 195 203 187 209 218 220 220 237 279 241 216 213 183 201
235 233 236 251 288 314 318 316 320 338 352 356 359 357 359 353 341 323 45 21 128 236 292 244 255 262 268 275 278 235 161 203 179 213 198 203 217 217 228 230 228 252 271 214 170 190 194
232 234 225 245 274 305 311 311 318 333 339 340 348 345 345 336 309 344 135 132 137 111 284 287 218 236 281 209 246 256 179 196 202 204 199 208 216 210 216 231 225 248 255 210 154 186 201
225 214 225 249 272 292 305 307 313 318 319 318 327 336 338 337 58 335 164 178 139 124 285 280 231 228 292 280 260 219 195 201 218 208 208 221 219 195 212 238 203 251 246 199 173 158 204
213 215 229 245 268 278 291 297 303 307 311 300 305 321 330 339 224 295 152 203 159 167 353 262 280 140 212 242 313 217 190 176 230 165 160 211 193 198 222 223 201 241 219 216 179 177 134
211 218 227 246 256 262 275 289 302 306 304 298 294 306 328 5 330 234 164 115 145 24 262 328 301 330 307 274 236 292 188 185 154 189 246 218 86 200 226 237 206 231 166 162 190 191 220
214 218 225 248 243 253 271 288 292 297 309 306 301 300 308 158 238 184 106 91 15 179 338 311 327 324 310 277 293 250 181 175 210 186 185 177 215 250 233 200 190 221 189 146 189 185 216
221 220 225 240 240 245 260 276 286 301 291 306 310 313 279 204 178 101 67 52 50 242 267 340 316 311 276 283 243 241 257 197 203 128 161 201 215 192 218 185 183 206 183 162 172 183 154
224 216 223 232 228 241 253 278 283 284 299 332 331 342 319 294 158 81 79 60 197 232 262 313 313 299 297 303 294 328 319 277 279 188 234 169 141 275 65 47 150 156 205 126 89 9 97
214 217 222 233 222 228 252 268 278 288 315 352 21 6 276 307 107 79 78 174 234 219 263 324 290 339 305 319 323 339 340 342 340 251 251 243 102 13 347 51 2 173 119 162 118 166 188
214 211 215 223 213 218 239 261 246 290 327 350 66 59 267 45 67 51 133 222 244 233 203 219 288 287 292 303 306 318 350 1 354 329 355 329 41 50 219 360 163 149 154 80 86 149 199
207 208 212 211 209 213 227 242 202 299 15 77 101 49 282 105 59 93 131 202 257 303 165 251 256 278 277 296 307 314 340 343 339 327 354 3 68 73 66 348 353 345 161 140 193 187 186
205 206 208 207 204 205 210 203 175 212 85 117 112 246 319 108 126 188 273 288 274 345 299 248 280 266 204 297 315 0 347 345 352 15 4 359 32 94 52 30 36 131 311 76 93 72 183
204 203 204 205 202 200 197 193 186 188 131 90 92 58 331 49 177 127 151 293 305 279 280 321 344 311 325 307 312 333 342 349 350 357 352 350 35 27 102 114 136 173 161 161 89 144 144
199 198 201 202 199 196 193 190 195 191 138 95 42 213 184 238 324 106 169 202 271 5 329 15 326 11 341 324 314 345 344 321 345 356 352 28 48 43 46 54 50 20 164 170 147 74 169
198 198 199 199 198 193 194 195 198 179 123 83 138 137 132 186 218 98 354 272 191 296 25 358 342 323 342 6 345 322 339 358 339 328 353 332 62 21 18 30 56 61 27 178 198 194 269
195 197 196 194 194 189 180 184 189 177 113 120 211 61 104 296 101 98 224 209 209 268 223 86 321 317 327 289 278 278 298 298 290 324 343 359 6 21 313 344 33 38 2 219 109 20 170
189 196 195 191 189 188 179 182 179 185 161 137 185 115 95 239 154 197 202 211 235 285 259 293 28 342 324 313 279 273 274 286 0 3 356 357 8 36 251 5 53 282 19 18 122 46 8
186 191 194 189 187 186 185 177 178 183 169 113 166 125 128 132 173 352 201 238 349 339 335 283 281 235 311 334 31 20 335 1 329 328 353 12 350 10 85 29 283 45 10 17 47 35 4
183 187 192 186 183 183 184 176 179 178 156 102 73 118 111 119 246 151 158 178 193 302 337 279 308 298 35 52 61 103 324 227 318 337 343 4 39 80 37 92 128 329 55 3 318 36 11
182 185 190 183 180 181 183 174 175 171 150 109 125 125 96 110 273 117 170 182 144 110 169 299 331 355 28 40 55 55 332 233 12 337 331 352 3 26 352 67 307 314 313 324 71 226 16
181 181 187 181 177 178 178 175 171 168 146 105 128 89 121 117 273 32 30 137 67 106 137 263 31 337 27 65 84 25 355 350 316 264 166 148 95 342 28 38 340 4 345 76 205 32 60
179 181 184 179 176 173 174 174 168 165 150 123 118 312 89 82 177 32 87 87 13 28 133 7 160 198 48 97 33 52 354 345 332 300 322 331 176 210 164 215 319 335 27 354 153 160 190